Location: Arrien
(42.8963°N, 1.0429°E)
Time: 09:52:11
(UTC+00:00)

Tiangong - Pass Details

Date: 22 February 2026
Orbit: 381 x 391 km, 41.5° (Epoch: 7 March)

Event Time Altitude Azimuth Distance (km) Brightness Sun altitude
Rises 18:07:14 0° 274° (W) 2,261 3.9 -6.4°
Reaches altitude 10° 18:09:35 10° 258° (WSW) 1,402 2.5 -6.8°
Maximum altitude 18:12:06 22° 206° (SSW) 901 0.2 -7.3°
Drops below altitude 10° 18:14:36 10° 153° (SSE) 1,393 0.5 -7.7°
Enters shadow 18:16:53 - 137° (SE) 2,224 1.4 -8.2°
